Weather History for Mosby, MO

Change the Weather History Date:

Friday, December 28, 2012

  Actual Average (KMKC) Record (KMKC)
Temperature  
Mean Temperature 28 °F -  
Max Temperature 32 °F 38 °F 57 °F (1999)
Min Temperature 23 °F 21 °F 10 °F (2000)
Degree Days  
Heating Degree Days 38    
Moisture  
Dew Point 25 °F    
Average Humidity 83    
Maximum Humidity 93    
Minimum Humidity 74    
Precipitation  
Precipitation 0.00 in - - ()
Sea Level Pressure  
Sea Level Pressure 29.98 in    
Wind  
Wind Speed 4 mph (WNW)    
Max Wind Speed 13 mph    
Max Gust Speed 18 mph    
Visibility 9 miles    
Events Snow    
Averages and records for this station are not official NWS values.
T = Trace of Precipitation, MM = Missing Value Source: NWS Daily Summary

Daily Weather History Graph

Daily Weather History Graph

Search for Another Location

Airport:

Trip Planner

Search our weather history database for the weather conditions in past years. The results will help you decide how hot, cold, wet, or windy it might be!

Date:

Astronomy

Dec. 28, 2012 Rise Set
Actual Time 7:36 AM CST 5:01 PM CST
Civil Twilight 7:06 AM CST 5:32 PM CST
Nautical Twilight 6:32 AM CST 6:05 PM CST
Astronomical Twilight 5:59 AM CST 6:38 PM CST
Moon 5:38 PM CST (12/28) 7:31 AM CST (12/28)
Length of Visible Light 10h 25m
Length of Day
9h 25m
Full, 100% of the Moon is Illuminated
Dec 28
Full
Jan 4
Last Quarter
Jan 11
New
Jan 18
First Quarter
Jan 26
Full

Hourly Weather History & Observations

Time (CST) Temp. Windchill Dew Point Humidity Pressure Visibility Wind Dir Wind Speed Gust Speed Precip Events Conditions
12:15 AM 32.0 °F 28.7 °F 26.6 °F 80% 29.97 in 10.0 mi East 3.5 mph - N/A   Overcast
12:35 AM 32.0 °F 28.7 °F 26.6 °F 80% 29.96 in 10.0 mi East 3.5 mph - N/A   Overcast
12:55 AM 30.2 °F - 26.6 °F 86% 29.96 in 10.0 mi Calm Calm - N/A   Overcast
1:15 AM 30.2 °F - 26.6 °F 86% 29.96 in 10.0 mi Calm Calm - N/A   Overcast
1:35 AM 30.2 °F - 26.6 °F 86% 29.96 in 10.0 mi Calm Calm - N/A   Overcast
1:55 AM 30.2 °F - 26.6 °F 86% 29.95 in 10.0 mi Calm Calm - N/A   Overcast
2:15 AM 30.2 °F - 26.6 °F 86% 29.95 in 10.0 mi Calm Calm - N/A   Overcast
2:35 AM 30.2 °F - 26.6 °F 86% 29.96 in 10.0 mi Calm Calm - N/A   Overcast
2:55 AM 30.2 °F - 26.6 °F 86% 29.96 in 10.0 mi Calm Calm - N/A   Overcast
3:15 AM 30.2 °F - 28.4 °F 93% 29.96 in 10.0 mi Calm Calm - N/A   Overcast
3:35 AM 30.2 °F - 28.4 °F 93% 29.96 in 10.0 mi Calm Calm - N/A   Overcast
3:55 AM 30.2 °F - 28.4 °F 93% 29.95 in 10.0 mi Calm Calm - N/A   Overcast
4:15 AM 30.2 °F - 26.6 °F 86% 29.95 in 10.0 mi Calm Calm - N/A   Overcast
4:35 AM 30.2 °F - 26.6 °F 86% 29.95 in 10.0 mi Calm Calm - N/A   Overcast
4:55 AM 30.2 °F - 28.4 °F 93% 29.95 in 10.0 mi Calm Calm - N/A   Overcast
5:15 AM 30.2 °F - 26.6 °F 86% 29.95 in 10.0 mi Calm Calm - N/A   Overcast
5:35 AM 30.2 °F - 28.4 °F 93% 29.95 in 10.0 mi Calm Calm - N/A   Overcast
5:55 AM 30.2 °F - 26.6 °F 86% 29.95 in 10.0 mi Calm Calm - N/A   Overcast
6:15 AM 30.2 °F - 26.6 °F 86% 29.96 in 10.0 mi Calm Calm - N/A   Overcast
6:35 AM 30.2 °F - 28.4 °F 93% 29.96 in 10.0 mi Calm Calm - N/A   Overcast
6:55 AM 30.2 °F - 26.6 °F 86% 29.97 in 10.0 mi Calm Calm - N/A   Overcast
7:15 AM 30.2 °F - 26.6 °F 86% 29.96 in 10.0 mi Calm Calm - N/A   Overcast
7:35 AM 30.2 °F - 26.6 °F 86% 29.97 in 10.0 mi Calm Calm - N/A   Overcast
8:15 AM 30.2 °F - 26.6 °F 86% 29.97 in 10.0 mi Calm Calm - N/A   Overcast
8:35 AM 30.2 °F 25.4 °F 26.6 °F 86% 29.97 in 10.0 mi NW 4.6 mph - N/A   Overcast
8:55 AM 30.2 °F 25.4 °F 26.6 °F 86% 29.97 in 10.0 mi NW 4.6 mph - N/A   Overcast
9:15 AM 30.2 °F 24.3 °F 26.6 °F 86% 29.97 in 10.0 mi NW 5.8 mph - N/A   Overcast
9:35 AM 30.2 °F 23.4 °F 26.6 °F 86% 29.98 in 10.0 mi NW 6.9 mph - N/A   Overcast
9:55 AM 30.2 °F 24.3 °F 26.6 °F 86% 29.98 in 10.0 mi NNW 5.8 mph - N/A   Overcast
10:15 AM 30.2 °F 22.6 °F 26.6 °F 86% 29.98 in 10.0 mi NNW 8.1 mph - N/A   Overcast
10:35 AM 30.2 °F 22.6 °F 26.6 °F 86% 29.99 in 10.0 mi NW 8.1 mph - N/A   Overcast
10:55 AM 32.0 °F 24.2 °F 26.6 °F 80% 29.98 in 10.0 mi NW 9.2 mph - N/A   Overcast
11:15 AM 32.0 °F 25.6 °F 26.6 °F 80% 29.98 in 10.0 mi WNW 6.9 mph - N/A   Overcast
11:55 AM 32.0 °F 25.6 °F 26.6 °F 80% 29.97 in 10.0 mi WNW 6.9 mph - N/A   Overcast
12:15 PM 32.0 °F 24.2 °F 26.6 °F 80% 29.97 in 10.0 mi WNW 9.2 mph - N/A   Overcast
12:35 PM 32.0 °F 24.8 °F 26.6 °F 80% 29.96 in 10.0 mi WNW 8.1 mph - N/A   Overcast
12:55 PM 32.0 °F 25.6 °F 26.6 °F 80% 29.96 in 10.0 mi WNW 6.9 mph - N/A   Overcast
1:15 PM 32.0 °F 24.8 °F 26.6 °F 80% 29.96 in 10.0 mi WNW 8.1 mph - N/A   Overcast
1:35 PM 32.0 °F 24.8 °F 26.6 °F 80% 29.95 in 10.0 mi WNW 8.1 mph - N/A   Overcast
1:55 PM 32.0 °F 24.8 °F 26.6 °F 80% 29.95 in 7.0 mi WNW 8.1 mph - N/A   Overcast
2:15 PM 30.2 °F 22.6 °F 26.6 °F 86% 29.96 in 7.0 mi WNW 8.1 mph - N/A   Overcast
2:35 PM 30.2 °F 22.6 °F 26.6 °F 86% 29.95 in 7.0 mi WNW 8.1 mph - N/A   Overcast
2:55 PM 30.2 °F 22.6 °F 26.6 °F 86% 29.96 in 7.0 mi WNW 8.1 mph - N/A   Overcast
3:15 PM 30.2 °F 22.6 °F 26.6 °F 86% 29.96 in 7.0 mi WNW 8.1 mph - N/A   Overcast
3:35 PM 30.2 °F 21.3 °F 26.6 °F 86% 29.96 in 7.0 mi West 10.4 mph 16.1 mph N/A   Overcast
3:55 PM 30.2 °F 21.3 °F 24.8 °F 80% 29.97 in 10.0 mi WNW 10.4 mph - N/A   Overcast
4:15 PM 30.2 °F 21.3 °F 23.0 °F 75% 29.97 in 10.0 mi WNW 10.4 mph - N/A   Overcast
4:35 PM 30.2 °F 20.2 °F 23.0 °F 75% 29.97 in 10.0 mi WNW 12.7 mph - N/A   Overcast
4:55 PM 30.2 °F 21.3 °F 23.0 °F 75% 29.98 in 7.0 mi WNW 10.4 mph - N/A Snow Light Snow
5:15 PM 30.2 °F 20.8 °F 23.0 °F 75% 29.98 in 10.0 mi WNW 11.5 mph 17.3 mph N/A   Overcast
5:35 PM 30.2 °F 22.6 °F 23.0 °F 75% 29.99 in 10.0 mi NW 8.1 mph - N/A   Overcast
5:55 PM 28.4 °F 19.7 °F 23.0 °F 80% 30.00 in 10.0 mi NW 9.2 mph - N/A   Overcast
6:15 PM 28.4 °F 20.4 °F 23.0 °F 80% 30.00 in 10.0 mi NW 8.1 mph - N/A   Overcast
6:35 PM 28.4 °F 19.7 °F 23.0 °F 80% 30.00 in 10.0 mi NW 9.2 mph 16.1 mph N/A   Overcast
7:35 PM 28.4 °F 20.4 °F 21.2 °F 74% 30.02 in 7.0 mi NW 8.1 mph - N/A   Overcast
7:55 PM 28.4 °F 19.1 °F 21.2 °F 74% 30.01 in 7.0 mi WNW 10.4 mph - N/A   Overcast
8:15 PM 26.6 °F 19.1 °F 21.2 °F 80% 30.02 in 10.0 mi WNW 6.9 mph - N/A   Overcast
8:35 PM 26.6 °F 17.5 °F 19.4 °F 74% 30.02 in 10.0 mi WNW 9.2 mph 18.4 mph N/A   Mostly Cloudy
8:55 PM 26.6 °F 16.2 °F 19.4 °F 74% 30.02 in 10.0 mi WNW 11.5 mph 17.3 mph N/A   Clear
9:15 PM 24.8 °F 15.3 °F 19.4 °F 80% 30.03 in 10.0 mi WNW 9.2 mph - N/A   Clear
9:35 PM 23.0 °F 13.9 °F 19.4 °F 86% 30.03 in 10.0 mi NW 8.1 mph - N/A   Clear
9:55 PM 23.0 °F 15.8 °F 17.6 °F 80% 30.04 in 10.0 mi WNW 5.8 mph - N/A   Clear
10:15 PM 23.0 °F 14.7 °F 17.6 °F 80% 30.05 in 10.0 mi WNW 6.9 mph - N/A   Scattered Clouds
10:35 PM 23.0 °F 15.8 °F 19.4 °F 86% 30.05 in 10.0 mi WNW 5.8 mph - N/A   Overcast
10:55 PM 23.0 °F 14.7 °F 19.4 °F 86% 30.05 in 7.0 mi WNW 6.9 mph - N/A   Overcast
11:15 PM 23.0 °F 13.9 °F 19.4 °F 86% 30.05 in 7.0 mi WNW 8.1 mph - N/A   Overcast
11:35 PM 23.0 °F 14.7 °F 19.4 °F 86% 30.06 in 5.0 mi WNW 6.9 mph - N/A Snow Light Snow
11:55 PM 23.0 °F 13.1 °F 19.4 °F 86% 30.06 in 4.0 mi WNW 9.2 mph - N/A Snow Light Snow